• In Uzbekistan
  • List of Countries
  • For 7 days
  • Water Temperature
  • Satellite Maps
  • Weather Map
  • Weather Widgets
  • user-avatar
    Login

    Hourly Weather Uyna

    Today, 12 December, Wednesday

    Time Temperature Precipitation Wind Pressure Humidity
    00:00 +22°C° 0 mm 1 mps 742 mmHg 99%
    01:00 +22°C° 0 mm 1 mps 742 mmHg 99%
    02:00 +20°C° 0 mm 0 mps 742 mmHg 99%
    03:00 +21°C° 0 mm 0 mps 742 mmHg 99%
    04:00 +21°C° 0 mm 0 mps 742 mmHg 99%
    05:00 +21°C° 0 mm 0 mps 742 mmHg 99%
    06:00 +21°C° 0 mm 0 mps 742 mmHg 99%
    07:00 +24°C° 0.1 mm 1 mps 742 mmHg 95%
    08:00 +25°C° 0.1 mm 1 mps 743 mmHg 91%
    09:00 +26°C° 0.1 mm 1 mps 743 mmHg 87%
    10:00 +27°C° 0.2 mm 1 mps 743 mmHg 79%
    11:00 +29°C° 0.2 mm 1 mps 743 mmHg 71%
    12:00 +30°C° 0.2 mm 2 mps 742 mmHg 63%
    13:00 +30°C° 0.1 mm 2 mps 742 mmHg 64%
    14:00 +30°C° 0.1 mm 2 mps 741 mmHg 65%
    15:00 +30°C° 0.1 mm 2 mps 740 mmHg 66%
    16:00 +28°C° 0.2 mm 1 mps 741 mmHg 76%
    17:00 +26°C° 0.2 mm 1 mps 741 mmHg 85%
    18:00 +24°C° 0.2 mm 1 mps 741 mmHg 95%
    19:00 +24°C° 0.1 mm 1 mps 741 mmHg 96%
    20:00 +21°C° 0.1 mm 0 mps 742 mmHg 97%
    21:00 +21°C° 0.1 mm 0 mps 742 mmHg 98%
    22:00 +20°C° 0 mm 0 mps 742 mmHg 99%
    23:00 +20°C° 0 mm 0 mps 742 mmHg 99%

    Tomorrow, 13 December, Thursday

    Time Temperature Precipitation Wind Pressure Humidity
    00:00 +20°C° 0 mm 0 mps 742 mmHg 99%
    01:00 +20°C° 0 mm 0 mps 741 mmHg 99%
    02:00 +20°C° 0 mm 0 mps 741 mmHg 99%
    03:00 +20°C° 0 mm 0 mps 741 mmHg 99%
    04:00 +20°C° 0 mm 0 mps 741 mmHg 99%
    05:00 +20°C° 0 mm 0 mps 741 mmHg 99%
    06:00 +20°C° 0 mm 0 mps 741 mmHg 99%
    07:00 +21°C° 0 mm 0 mps 742 mmHg 94%
    08:00 +23°C° 0 mm 0 mps 742 mmHg 89%
    09:00 +24°C° 0 mm 0 mps 743 mmHg 84%
    10:00 +28°C° 0.1 mm 1 mps 742 mmHg 75%
    11:00 +29°C° 0.1 mm 1 mps 741 mmHg 67%
    12:00 +31°C° 0.1 mm 1 mps 741 mmHg 58%
    13:00 +31°C° 0.1 mm 1 mps 740 mmHg 58%
    14:00 +31°C° 0.1 mm 1 mps 740 mmHg 58%
    15:00 +31°C° 0.1 mm 1 mps 739 mmHg 57%
    16:00 +29°C° 0.1 mm 1 mps 739 mmHg 67%
    17:00 +27°C° 0.1 mm 1 mps 740 mmHg 77%
    18:00 +23°C° 0.1 mm 0 mps 740 mmHg 87%
    19:00 +22°C° 0 mm 0 mps 740 mmHg 90%
    20:00 +21°C° 0 mm 0 mps 741 mmHg 92%
    21:00 +21°C° 0 mm 0 mps 741 mmHg 95%
    22:00 +20°C° 0 mm 0 mps 741 mmHg 96%
    23:00 +20°C° 0 mm 0 mps 741 mmHg 97%

    Day after tomorrow, 14 December, Friday

    Time Temperature Precipitation Wind Pressure Humidity
    00:00 +20°C° 0 mm 0 mps 741 mmHg 98%
    01:00 +19°C° 0 mm 0 mps 741 mmHg 98%
    02:00 +19°C° 0 mm 0 mps 741 mmHg 98%
    03:00 +19°C° 0 mm 0 mps 740 mmHg 98%
    04:00 +19°C° 0 mm 0 mps 740 mmHg 99%
    05:00 +19°C° 0 mm 0 mps 741 mmHg 99%
    06:00 +19°C° 0 mm 0 mps 741 mmHg 99%
    07:00 +21°C° 0 mm 0 mps 741 mmHg 89%
    08:00 +24°C° 0 mm 0 mps 742 mmHg 79%
    09:00 +27°C° 0 mm 0 mps 742 mmHg 68%
    10:00 +28°C° 0 mm 0 mps 742 mmHg 62%
    11:00 +31°C° 0 mm 1 mps 741 mmHg 56%
    12:00 +33°C° 0 mm 1 mps 741 mmHg 50%
    13:00 +32°C° 0 mm 1 mps 740 mmHg 51%
    14:00 +32°C° 0 mm 1 mps 739 mmHg 53%
    15:00 +32°C° 0 mm 1 mps 739 mmHg 54%
    16:00 +30°C° 0.2 mm 1 mps 739 mmHg 66%
    17:00 +27°C° 0.2 mm 1 mps 739 mmHg 77%
    18:00 +25°C° 0.2 mm 1 mps 740 mmHg 89%
    19:00 +24°C° 0.1 mm 1 mps 741 mmHg 92%
    20:00 +22°C° 0.1 mm 0 mps 741 mmHg 95%
    21:00 +21°C° 0.1 mm 0 mps 742 mmHg 97%
    22:00 +21°C° 0 mm 0 mps 742 mmHg 98%
    23:00 +21°C° 0 mm 0 mps 742 mmHg 98%

    15 December, Saturday

    Time Temperature Precipitation Wind Pressure Humidity
    00:00 +21°C° 0 mm 0 mps 742 mmHg 98%
    01:00 +20°C° 0 mm 0 mps 742 mmHg 98%
    02:00 +20°C° 0 mm 0 mps 741 mmHg 98%
    03:00 +20°C° 0 mm 0 mps 741 mmHg 99%
    04:00 +20°C° 0 mm 0 mps 742 mmHg 99%
    05:00 +20°C° 0 mm 0 mps 742 mmHg 99%
    06:00 +22°C° 0 mm 1 mps 742 mmHg 99%
    07:00 +24°C° 0 mm 1 mps 743 mmHg 88%
    08:00 +26°C° 0 mm 1 mps 743 mmHg 78%
    09:00 +28°C° 0 mm 1 mps 744 mmHg 68%
    10:00 +29°C° 0.2 mm 2 mps 743 mmHg 66%
    11:00 +30°C° 0.2 mm 2 mps 743 mmHg 65%
    12:00 +31°C° 0.2 mm 3 mps 742 mmHg 63%
    13:00 +28°C° 0.9 mm 2 mps 742 mmHg 73%
    14:00 +26°C° 0.9 mm 2 mps 741 mmHg 83%
    15:00 +24°C° 0.9 mm 2 mps 741 mmHg 94%
    16:00 +23°C° 0.1 mm 1 mps 741 mmHg 94%
    17:00 +23°C° 0.1 mm 1 mps 742 mmHg 95%
    18:00 +22°C° 0.1 mm 1 mps 743 mmHg 96%
    19:00 +21°C° 0 mm 1 mps 743 mmHg 96%
    20:00 +21°C° 0 mm 1 mps 744 mmHg 96%
    21:00 +21°C° 0 mm 1 mps 744 mmHg 97%
    22:00 +20°C° 0 mm 1 mps 744 mmHg 97%
    23:00 +20°C° 0 mm 1 mps 744 mmHg 97%

    16 December, Sunday

    Time Temperature Precipitation Wind Pressure Humidity
    00:00 +20°C° 0 mm 1 mps 743 mmHg 97%
    01:00 +20°C° 0 mm 1 mps 743 mmHg 97%
    02:00 +20°C° 0 mm 1 mps 743 mmHg 97%
    03:00 +19°C° 0 mm 1 mps 742 mmHg 97%
    04:00 +19°C° 0 mm 1 mps 743 mmHg 97%
    05:00 +19°C° 0 mm 1 mps 743 mmHg 97%
    06:00 +19°C° 0 mm 1 mps 743 mmHg 97%
    07:00 +21°C° 0 mm 1 mps 744 mmHg 87%
    08:00 +24°C° 0 mm 1 mps 744 mmHg 77%
    09:00 +26°C° 0 mm 2 mps 744 mmHg 67%
    10:00 +28°C° 0 mm 2 mps 744 mmHg 61%
    11:00 +29°C° 0 mm 2 mps 743 mmHg 56%
    12:00 +31°C° 0 mm 3 mps 742 mmHg 50%
    13:00 +30°C° 0.2 mm 3 mps 742 mmHg 56%
    14:00 +30°C° 0.2 mm 3 mps 741 mmHg 62%
    15:00 +29°C° 0.2 mm 2 mps 741 mmHg 67%
    16:00 +27°C° 0.2 mm 2 mps 741 mmHg 73%
    17:00 +26°C° 0.2 mm 2 mps 742 mmHg 80%
    18:00 +24°C° 0.2 mm 1 mps 742 mmHg 86%
    19:00 +23°C° 0 mm 1 mps 743 mmHg 89%
    20:00 +23°C° 0 mm 1 mps 743 mmHg 91%
    21:00 +22°C° 0 mm 1 mps 743 mmHg 94%
    22:00 +22°C° 0 mm 1 mps 743 mmHg 95%
    23:00 +22°C° 0 mm 1 mps 743 mmHg 96%

    17 December, Monday

    Time Temperature Precipitation Wind Pressure Humidity
    00:00 +22°C° 0 mm 1 mps 743 mmHg 96%
    01:00 +21°C° 0 mm 1 mps 742 mmHg 96%
    02:00 +21°C° 0 mm 1 mps 742 mmHg 96%
    03:00 +21°C° 0 mm 1 mps 741 mmHg 97%
    04:00 +21°C° 0 mm 1 mps 742 mmHg 96%
    05:00 +21°C° 0 mm 1 mps 742 mmHg 95%
    06:00 +21°C° 0 mm 1 mps 743 mmHg 95%
    07:00 +23°C° 0 mm 1 mps 743 mmHg 86%
    08:00 +25°C° 0 mm 1 mps 744 mmHg 77%
    09:00 +27°C° 0 mm 2 mps 744 mmHg 68%
    10:00 +28°C° 0 mm 2 mps 743 mmHg 64%
    11:00 +29°C° 0 mm 2 mps 743 mmHg 60%
    12:00 +30°C° 0 mm 2 mps 742 mmHg 55%
    13:00 +29°C° 0.3 mm 2 mps 742 mmHg 61%
    14:00 +29°C° 0.3 mm 2 mps 741 mmHg 67%
    15:00 +28°C° 0.3 mm 2 mps 741 mmHg 73%
    16:00 +26°C° 0.1 mm 2 mps 741 mmHg 80%
    17:00 +25°C° 0.1 mm 1 mps 742 mmHg 86%
    18:00 +23°C° 0.1 mm 1 mps 742 mmHg 93%
    19:00 +23°C° 0 mm 1 mps 742 mmHg 94%
    20:00 +22°C° 0 mm 1 mps 743 mmHg 95%
    21:00 +22°C° 0 mm 1 mps 743 mmHg 97%
    22:00 +21°C° 0 mm 1 mps 743 mmHg 97%
    23:00 +21°C° 0 mm 1 mps 743 mmHg 97%
    Show more